[[{"header":{"parameterUnit":"m.s-1","parameterCategory":1,"la1":30.2991,"la2":30.254,"lo1":-89.0895,"lo2":-89.0444,"dy":0.0017,"dx":0.0017,"nx":28,"ny":28,"refTime":"2023-10-11T21:00:00:Z","depth":0,"parameterNumber":2,"parameterNumberName":"U-component_of_WINDS"},"data":[0,0,0,0,0,0,0,0,0,0,0,0,0,0,0,0,0,0,0,0,0,0,0,0,0,0,0,0,0,0,0,0,0,0,0,0,0,0,0,0,0,0,0,0,0,0,0,0,0,0,0,0,0,0,0,0,0,0,-3.2112,-3.2112,0,-3.2119,-3.2119,-3.2119,-3.2038,-3.2036,-3.2033,-3.2031,-3.2039,-3.2041,-3.2043,0,0,0,0,0,0,0,0,0,0,0,0,0,-3.2026,-3.2028,-3.2112,-3.2112,-3.2112,-3.2119,-3.2119,-3.2119,-3.2038,-3.2036,-3.2033,-3.203,-3.2038,-3.204,-3.2043,0,0,0,0,0,0,0,0,0,0,0,0,0,-3.2052,-3.2029,-3.2112,-3.2072,-3.2069,-3.2119,-3.2119,-3.2119,-3.2039,-3.2035,-3.2032,-3.2029,-3.2037,-3.204,-3.2044,-3.2132,0,0,-3.2054,-3.2055,0,0,0,0,0,0,0,0,-3.205,-3.2055,-3.2078,-3.2075,-3.2071,-3.2074,-3.2092,-3.2124,-3.204,-3.205,-3.2031,-3.2027,-3.2053,-3.2055,-3.2064,-3.2132,-3.2132,-3.2054,-3.2056,-3.2058,-3.2059,0,0,0,0,0,0,0,-3.2049,-3.2054,-3.2115,-3.2078,-3.2074,-3.2054,-3.2054,-3.2097,-3.207,-3.2049,-3.2043,-3.2045,-3.2051,-3.2061,-3.2063,-3.2133,-3.2054,-3.2057,-3.2059,-3.2061,-3.2273,-3.2276,0,0,0,0,0,0,-3.2052,-3.2053,-3.2114,-3.2115,-3.2052,-3.2058,-3.2058,-3.2077,-3.207,-3.2065,-3.2048,-3.2041,-3.2056,-3.2059,-3.2063,-3.2165,-3.2058,-3.2061,-3.2063,-3.2269,-3.2274,-3.2278,0,0,0,0,0,0,-3.2051,-3.2059,-3.2114,-3.2082,-3.2088,-3.2063,-3.2085,-3.2079,-3.2088,-3.2069,-3.2064,-3.2063,-3.2054,-3.2058,-3.2115,-3.2165,-3.2063,-3.2066,-3.2265,-3.2271,-3.2276,-3.2371,0,0,0,0,0,0,-3.2049,-3.2059,-3.2092,-3.2084,-3.209,-3.2167,-3.2088,-3.2081,-3.2095,-3.2086,-3.2082,-3.2078,-3.2052,-3.2111,-3.2119,-3.2167,-3.2068,-3.2261,-3.2268,-3.2274,-3.2364,-3.2379,-3.2393,0,0,0,0,0,-3.2046,-3.2119,-3.2094,-3.2102,-3.2131,-3.217,-3.2173,-3.2141,-3.2099,-3.2132,-3.212,-3.2078,-3.2158,-3.2117,-3.2125,-3.2176,-3.2257,-3.2266,-3.2273,-3.2357,-3.2376,-3.2392,0,0,0,0,0,0,-3.2133,-3.2117,-3.209,-3.2162,-3.2168,-3.2156,-3.2197,-3.2163,-3.2181,-3.2172,-3.2132,-3.2131,-3.2195,-3.2191,-3.2146,-3.2261,-3.22,-3.221,-3.2261,-3.2279,-3.2293,-3.2292,-3.2071,0,0,0,0,0,-3.2161,-3.2194,-3.2177,-3.2243,-3.2247,-3.2222,-3.2237,-3.2212,-3.2217,-3.2219,-3.221,-3.2216,-3.2242,-3.226,-3.2283,-3.2363,-3.236,-3.2402,-3.2416,-3.2428,-3.2437,-3.2478,-3.2496,-3.2304,-3.2304,-3.2304,0,0,-3.2219,-3.2214,-3.2237,-3.226,-3.2262,-3.2296,-3.2224,-3.2264,-3.2289,-3.2225,-3.2277,-3.2272,-3.2275,-3.2344,-3.2373,-3.2343,-3.249,-3.2439,-3.2448,-3.2451,-3.2489,-3.2507,-3.2523,-3.231,-3.2309,-3.2308,0,0,-3.2341,-3.2341,-3.2395,-3.2398,-3.2401,-3.2384,-3.2397,-3.239,-3.2384,-3.2436,-3.2389,-3.2418,-3.2464,-3.2468,-3.2477,-3.2601,-3.2563,-3.2609,-3.2685,-3.2726,-3.2741,-3.2754,-3.2798,-3.2814,-3.2619,-3.2619,-3.2619,0,-3.2412,-3.2462,-3.2427,-3.2469,-3.2481,-3.2424,-3.2479,-3.2483,-3.2494,-3.2503,-3.2469,-3.2525,-3.2524,-3.2592,-3.2623,-3.2631,-3.2645,-3.2609,-3.2741,-3.2754,-3.2766,-3.2807,-3.2824,-3.2624,-3.2624,-3.2623,-3.2623,0,-3.2548,-3.2584,-3.2627,-3.2639,-3.2655,-3.2704,-3.2676,-3.2697,-3.267,-3.2657,-3.2711,-3.2707,-3.2728,-3.2743,-3.2718,-3.2808,-3.2788,-3.2748,-3.2687,-3.2791,-3.2829,-3.2844,-3.2632,-3.263,-3.2629,-3.2627,0,0,-3.2725,-3.2717,-3.2734,-3.2738,-3.2738,-3.2764,-3.281,-3.2831,-3.2849,-3.2859,-3.2896,-3.2936,-3.2899,-3.2909,-3.2883,-3.2919,-3.3017,-3.2874,-3.2874,-3.2901,-3.3115,-3.3145,-3.3164,-3.2992,-3.2995,-3.2997,-3.3115,0,-3.2844,-3.2921,-3.2891,-3.2971,-3.3003,-3.295,-3.2989,-3.2993,-3.2982,-3.3007,-3.2994,-3.3023,-3.2972,-3.2977,-3.3011,-3.2998,-3.3059,-3.2989,-3.3025,-3.3027,-3.3026,-3.3184,-3.3215,-3.3326,-3.3129,-3.3132,-3.3134,0,-3.2992,-3.3008,-3.3091,-3.3084,-3.3097,-3.3133,-3.3149,-3.3174,-3.3177,-3.3166,-3.3177,-3.3144,-3.3188,-3.3127,-3.3187,-3.314,-3.3153,-3.3149,-3.3152,-3.3154,-3.3086,-3.3189,-3.3361,-3.3377,-3.3157,-3.3155,-3.3153,0,-3.3112,-3.3154,-3.3209,-3.3214,-3.3208,-3.3235,-3.3234,-3.3234,-3.3248,-3.3262,-3.3271,-3.3291,-3.3301,-3.3317,-3.329,-3.3248,-3.3353,-3.329,-3.3345,-3.3346,-3.3369,-3.3368,-3.3545,-3.3379,-3.3379,-3.3378,-3.3378,0,-3.3247,-3.33,-3.3263,-3.3296,-3.3354,-3.3319,-3.3376,-3.3369,-3.3369,-3.3401,-3.3356,-3.3386,-3.3349,-3.3376,-3.3355,-3.3407,-3.3412,-3.3404,-3.3398,-3.3408,-3.3409,-3.3415,-3.3407,-3.3383,-3.3382,-3.3381,-3.338,0,-3.3391,-3.3368,-3.3424,-3.3414,-3.3413,-3.3456,-3.3446,-3.3477,-3.3462,-3.3502,-3.351,-3.3487,-3.3516,-3.349,-3.3518,-3.3504,-3.3574,-3.3557,-3.3573,-3.3568,-3.3624,-3.3618,-3.381,-3.3834,-3.3654,-3.3655,-3.3657,0,-3.3478,-3.3518,-3.3512,-3.3529,-3.3531,-3.356,-3.3574,-3.3541,-3.3558,-3.3565,-3.3595,-3.362,-3.3638,-3.3687,-3.3672,-3.3693,-3.3676,-3.3742,-3.3679,-3.3687,-3.3676,-3.3674,-3.3677,-3.3754,-3.3757,-3.3758,-3.376,0,-3.3636,-3.3622,-3.3645,-3.3664,-3.3682,-3.3695,-3.3705,-3.3722,-3.3688,-3.3709,-3.3738,-3.3752,-3.378,-3.3806,-3.3822,-3.382,-3.3785,-3.378,-3.3793,-3.3804,-3.3811,-3.3807,-3.3607,-3.3775,-3.3774,-3.3773,-3.3772,-3.3771,-3.3753,-3.3786,-3.3786,-3.3813,-3.3816,-3.3826,-3.3855,-3.3843,-3.3867,-3.3887,-3.3866,-3.3902,-3.3903,-3.3922,-3.3924,-3.3951,-3.3924,-3.3944,-3.3949,-3.3954,-3.3962,-3.3808,-3.3954,-3.3954,-3.3953,-3.3953,-3.3953,0,-3.3908,-3.3906,-3.393,-3.3945,-3.3966,-3.393,-3.3939,-3.3959,-3.399,-3.3995,-3.4014,-3.4047,-3.4072,-3.4059,-3.408,-3.4104,-3.4088,-3.4111,-3.4108,-3.4108,-3.3986,-3.3971,-3.4123,-3.4123,-3.4123,-3.4123,-3.4123,-3.4123,-3.399,-3.4043,-3.403,-3.4084,-3.4081,-3.4115,-3.4123,-3.4132,-3.4135,-3.4174,-3.4194,-3.4186,-3.4184,-3.4205,-3.4225,-3.4221,-3.423,-3.4259,-3.4249,-3.4134,-3.4117,-3.4101,-3.4087,-3.4262,-3.4262,-3.4369,-3.437,-3.4371]},{"header":{"parameterUnit":"m.s-1","parameterCategory":1,"la1":30.2991,"la2":30.254,"lo1":-89.0895,"lo2":-89.0444,"dy":0.0017,"dx":0.0017,"nx":28,"ny":28,"refTime":"2023-10-11T21:00:00:Z","depth":0,"parameterNumber":3,"parameterNumberName":"V-component_of_WINDS"},"data":[0,0,0,0,0,0,0,0,0,0,0,0,0,0,0,0,0,0,0,0,0,0,0,0,0,0,0,0,0,0,0,0,0,0,0,0,0,0,0,0,0,0,0,0,0,0,0,0,0,0,0,0,0,0,0,0,0,0,-3.4692,-3.4693,0,-3.4737,-3.4737,-3.4738,-3.4703,-3.4702,-3.47,-3.4699,-3.4742,-3.4744,-3.4747,0,0,0,0,0,0,0,0,0,0,0,0,0,-3.4572,-3.4575,-3.4692,-3.4693,-3.4693,-3.4737,-3.4737,-3.4738,-3.4704,-3.4702,-3.47,-3.4698,-3.4741,-3.4744,-3.4747,0,0,0,0,0,0,0,0,0,0,0,0,0,-3.4621,-3.4575,-3.4692,-3.4681,-3.4681,-3.4737,-3.4737,-3.4738,-3.4704,-3.4702,-3.47,-3.4697,-3.474,-3.4744,-3.4747,-3.4815,0,0,-3.4759,-3.4761,0,0,0,0,0,0,0,0,-3.4619,-3.4626,-3.4682,-3.4682,-3.4682,-3.4712,-3.4711,-3.4764,-3.4705,-3.4695,-3.4699,-3.4696,-3.4734,-3.4738,-3.4751,-3.4817,-3.4819,-3.4759,-3.4762,-3.4763,-3.4764,0,0,0,0,0,0,0,-3.4615,-3.4624,-3.471,-3.4683,-3.4683,-3.4673,-3.4677,-3.4721,-3.4726,-3.4696,-3.4693,-3.4699,-3.4733,-3.4747,-3.4752,-3.482,-3.4759,-3.4763,-3.4765,-3.4766,-3.4942,-3.4944,0,0,0,0,0,0,-3.4613,-3.4621,-3.4708,-3.4711,-3.4644,-3.4677,-3.4682,-3.4705,-3.4726,-3.4727,-3.4701,-3.4698,-3.4742,-3.4747,-3.4753,-3.4833,-3.4763,-3.4767,-3.4769,-3.494,-3.4942,-3.4945,0,0,0,0,0,0,-3.4611,-3.4622,-3.4706,-3.4665,-3.4675,-3.4681,-3.4707,-3.4707,-3.4721,-3.473,-3.473,-3.4715,-3.4741,-3.4748,-3.48,-3.4834,-3.4768,-3.4772,-3.4937,-3.494,-3.4944,-3.4994,0,0,0,0,0,0,-3.4608,-3.4621,-3.4648,-3.4666,-3.4678,-3.4754,-3.4709,-3.4709,-3.4728,-3.4724,-3.4743,-3.4744,-3.4739,-3.4794,-3.4804,-3.4838,-3.4775,-3.4934,-3.4938,-3.4943,-3.4989,-3.4998,-3.5007,0,0,0,0,0,-3.4604,-3.466,-3.4649,-3.466,-3.4712,-3.4756,-3.4762,-3.4757,-3.4731,-3.4757,-3.4763,-3.4743,-3.4829,-3.48,-3.481,-3.4846,-3.4932,-3.4937,-3.4942,-3.4985,-3.4997,-3.5006,0,0,0,0,0,0,-3.4644,-3.4662,-3.4651,-3.4715,-3.4734,-3.475,-3.4783,-3.4769,-3.4796,-3.479,-3.4781,-3.4786,-3.484,-3.4848,-3.4816,-3.4912,-3.4876,-3.4883,-3.4905,-3.4916,-3.4925,-3.4921,-3.4778,0,0,0,0,0,-3.4661,-3.4696,-3.4709,-3.4765,-3.4775,-3.4778,-3.4797,-3.4791,-3.481,-3.4818,-3.4827,-3.4845,-3.4876,-3.4896,-3.4925,-3.499,-3.4993,-3.5019,-3.5028,-3.5035,-3.5042,-3.5075,-3.5087,-3.4963,-3.4963,-3.4963,0,0,-3.4695,-3.4709,-3.4732,-3.4773,-3.4788,-3.4823,-3.4785,-3.4824,-3.485,-3.4823,-3.4873,-3.488,-3.49,-3.4958,-3.4985,-3.4967,-3.5077,-3.5042,-3.5048,-3.505,-3.5082,-3.5094,-3.5104,-3.4966,-3.4966,-3.4965,0,0,-3.4776,-3.4791,-3.4838,-3.4853,-3.4875,-3.4876,-3.4888,-3.4905,-3.4909,-3.4959,-3.4939,-3.4969,-3.5023,-3.5038,-3.5052,-3.5137,-3.512,-3.5146,-3.5192,-3.5225,-3.5235,-3.5243,-3.5272,-3.5283,-3.5153,-3.5153,-3.5153,0,-3.4815,-3.487,-3.4863,-3.4904,-3.4922,-3.49,-3.4947,-3.4961,-3.4992,-3.5004,-3.4983,-3.505,-3.5061,-3.5122,-3.5143,-3.5156,-3.5167,-3.5144,-3.5234,-3.5242,-3.525,-3.5278,-3.5289,-3.5156,-3.5156,-3.5156,-3.5155,0,-3.4916,-3.4954,-3.4989,-3.502,-3.5042,-3.5085,-3.5084,-3.5107,-3.5098,-3.5101,-3.5151,-3.5164,-3.5195,-3.5209,-3.5201,-3.5268,-3.5256,-3.5235,-3.5199,-3.5265,-3.5291,-3.5302,-3.5161,-3.5159,-3.5159,-3.5158,0,0,-3.5025,-3.5051,-3.5064,-3.5076,-3.5099,-3.5127,-3.5169,-3.52,-3.5219,-3.524,-3.5273,-3.5319,-3.5299,-3.5316,-3.5309,-3.5338,-3.5402,-3.5313,-3.5313,-3.5328,-3.5476,-3.5491,-3.5503,-3.5391,-3.5393,-3.5395,-3.5474,0,-3.5106,-3.518,-3.5175,-3.5244,-3.5277,-3.5256,-3.5292,-3.5309,-3.5312,-3.534,-3.5343,-3.5375,-3.5348,-3.5357,-3.5385,-3.5389,-3.5432,-3.5383,-3.5421,-3.5423,-3.5416,-3.5517,-3.5534,-3.5608,-3.5484,-3.5485,-3.5487,0,-3.521,-3.5236,-3.5309,-3.5325,-3.5339,-3.5371,-3.5398,-3.5426,-3.5444,-3.5444,-3.5462,-3.545,-3.549,-3.5453,-3.5508,-3.5475,-3.549,-3.5494,-3.5497,-3.55,-3.5458,-3.5522,-3.5631,-3.5642,-3.5503,-3.5501,-3.55,0,-3.5281,-3.5333,-3.5383,-3.5395,-3.5415,-3.5438,-3.5448,-3.5464,-3.5482,-3.5505,-3.5516,-3.5544,-3.5559,-3.5579,-3.5574,-3.5548,-3.563,-3.5593,-3.563,-3.563,-3.5648,-3.5647,-3.576,-3.5659,-3.5659,-3.5658,-3.5658,0,-3.5371,-3.5416,-3.5415,-3.5445,-3.5494,-3.5487,-3.5536,-3.5542,-3.5556,-3.5587,-3.557,-3.5598,-3.559,-3.5618,-3.5614,-3.5659,-3.5666,-3.5667,-3.5665,-3.5668,-3.5668,-3.5677,-3.5672,-3.5661,-3.5661,-3.566,-3.566,0,-3.5458,-3.5459,-3.5512,-3.5527,-3.5532,-3.5567,-3.5579,-3.5607,-3.5609,-3.5647,-3.5656,-3.5658,-3.569,-3.5687,-3.5723,-3.572,-3.5775,-3.5768,-3.577,-3.5768,-3.5805,-3.5801,-3.5928,-3.5944,-3.5833,-3.5834,-3.5835,0,-3.5516,-3.555,-3.5569,-3.5588,-3.5599,-3.5631,-3.565,-3.5643,-3.5663,-3.5686,-3.5711,-3.5741,-3.5765,-3.5816,-3.582,-3.5847,-3.5839,-3.5882,-3.5843,-3.5845,-3.5839,-3.5837,-3.5839,-3.5889,-3.5891,-3.5892,-3.5892,0,-3.5618,-3.5616,-3.5645,-3.5673,-3.5695,-3.5717,-3.5736,-3.5753,-3.5748,-3.5771,-3.5804,-3.5823,-3.5859,-3.5888,-3.5914,-3.5921,-3.5906,-3.5905,-3.5915,-3.5918,-3.5917,-3.5917,-3.579,-3.5902,-3.5901,-3.59,-3.59,-3.5899,-3.5691,-3.572,-3.5738,-3.5769,-3.5783,-3.5801,-3.5828,-3.5833,-3.5861,-3.589,-3.5884,-3.5921,-3.5936,-3.5968,-3.5979,-3.6006,-3.599,-3.6005,-3.6009,-3.6012,-3.6016,-3.5913,-3.6011,-3.601,-3.601,-3.601,-3.601,0,-3.5791,-3.5801,-3.583,-3.5858,-3.5883,-3.5867,-3.5887,-3.5908,-3.5941,-3.5957,-3.5981,-3.6017,-3.6046,-3.6052,-3.6079,-3.6099,-3.6093,-3.6106,-3.6104,-3.6106,-3.6029,-3.6017,-3.6111,-3.6111,-3.6111,-3.6111,-3.6111,-3.6111,-3.5846,-3.5894,-3.5894,-3.5948,-3.5957,-3.5993,-3.6006,-3.6022,-3.6035,-3.6077,-3.6101,-3.6105,-3.6117,-3.6144,-3.6169,-3.617,-3.618,-3.6196,-3.6194,-3.6122,-3.6112,-3.6102,-3.6091,-3.6199,-3.6199,-3.6269,-3.627,-3.6271]}]]